Wind_Speed
7 7 7 6 6 5 4 3 4 4 3 2 1 1 1 2 2 3 3 4 4 4 4 5 5 6 7 8 9 9 9 9 9 9 9 9 9 10 11 10 10 10 10
6 5 6 5 5 5 4 3 3 3 2 1 1 1 2 2 2 3 3 4 5 5 5 5 6 7 7 8 9 9 9 9 9 9 10 11 11 11 11 12 12 12 12
6 5 5 4 4 3 3 3 3 2 1 1 1 1 1 2 2 3 4 4 5 5 6 6 6 6 7 8 8 9 9 10 10 10 11 12 12 12 12 12 13 13 13
6 5 4 3 3 2 2 2 2 2 1 1 1 2 2 2 3 3 4 4 5 5 6 6 6 7 7 8 8 8 9 10 11 12 12 13 14 14 13 13 14 14 14
6 6 4 3 3 2 2 2 2 2 2 2 2 2 3 3 3 4 5 5 6 6 6 7 7 7 8 9 9 9 10 12 12 13 14 14 15 15 15 15 15 16 15
6 6 5 4 3 3 3 2 2 2 2 3 3 3 4 4 5 6 6 6 7 7 7 7 8 8 8 9 10 11 11 13 15 15 15 15 15 15 15 15 16 16 16
5 6 5 4 4 4 4 3 3 3 3 4 5 5 5 5 6 6 6 6 7 8 8 8 8 9 9 10 11 12 13 14 15 16 16 16 16 16 16 16 16 17 17
5 5 4 4 4 4 4 4 4 4 4 5 5 6 6 6 6 7 7 7 7 7 8 8 9 9 10 11 11 12 13 14 15 15 16 17 17 17 18 18 18 18 19
5 5 5 4 5 5 5 5 5 5 6 5 5 6 7 7 7 7 7 7 8 8 8 9 9 10 11 12 12 13 14 15 15 15 16 18 18 18 18 19 19 19 20
5 5 6 6 6 6 6 6 6 7 7 6 6 6 7 8 9 9 8 8 9 9 10 10 10 10 11 12 13 14 14 15 16 16 17 18 19 19 19 19 19 20 20
6 6 6 7 7 7 7 7 7 7 7 7 7 7 8 9 10 10 9 9 9 10 10 11 11 11 12 13 14 15 16 16 17 17 18 18 19 19 19 19 20 20 21
6 6 6 6 7 7 7 7 7 7 7 7 7 8 9 10 10 10 10 10 11 11 11 11 12 12 13 14 15 16 16 17 17 17 17 18 19 20 20 20 21 21 21
7 7 7 6 7 7 7 7 8 8 8 8 8 9 9 10 10 11 11 12 12 12 13 13 14 14 14 15 16 17 17 18 18 18 18 18 19 20 21 21 21 21 22
8 8 7 7 7 7 7 7 8 8 8 9 9 10 10 11 11 11 12 13 13 14 14 15 15 16 16 17 17 17 18 19 19 18 19 19 19 20 20 21 21 21 21
7 7 7 7 8 7 7 8 9 9 9 9 10 10 11 12 12 12 13 13 14 15 16 16 17 17 18 18 18 18 18 18 19 19 20 20 20 20 20 21 21 20 22
7 7 7 8 8 8 9 9 9 10 10 10 11 11 12 12 13 13 13 14 15 16 17 17 17 18 18 18 19 19 19 19 19 20 20 20 20 20 20 20 20 20 21
7 7 8 8 9 9 9 10 10 11 11 11 11 12 13 13 14 14 14 15 15 16 17 17 17 17 18 18 18 19 20 19 19 20 20 20 20 20 20 20 20 21 22
8 8 8 9 9 10 10 11 12 12 12 12 12 13 14 14 15 15 15 15 16 16 17 17 18 18 18 18 19 20 20 20 20 20 20 20 20 20 20 20 21 22 22
9 9 9 9 10 11 11 12 12 13 13 13 14 14 15 15 15 16 16 16 16 17 17 18 18 19 19 20 20 21 21 21 21 21 21 20 20 20 21 21 22 23 23
11 11 11 11 11 12 12 13 13 14 14 15 16 16 16 17 16 17 17 17 18 18 19 19 20 20 20 21 21 21 21 22 22 22 22 21 21 22 22 23 24 24 24
13 13 13 13 13 12 13 14 15 15 15 16 17 17 17 17 17 18 18 19 19 20 20 21 21 22 21 22 21 22 22 22 22 22 23 23 23 23 24 24 24 25 25
14 14 15 15 15 15 15 15 16 16 17 18 18 18 18 18 18 18 19 20 20 20 21 21 22 22 22 22 22 23 23 23 23 23 23 23 24 24 25 25 25 26 27
16 16 16 17 17 17 17 17 17 18 18 19 19 19 20 20 19 20 21 21 21 22 22 23 22 22 22 23 23 23 24 24 24 24 23 23 24 24 26 26 26 27 28
18 18 18 18 18 18 18 18 18 18 19 20 21 21 21 21 21 22 22 22 23 24 24 24 24 23 23 23 24 24 24 24 25 25 25 25 25 26 26 27 27 28 29
19 19 19 19 19 19 19 19 19 20 20 21 22 22 22 22 23 23 23 24 24 25 25 25 24 24 24 25 25 25 25 25 25 25 25 26 26 26 27 27 27 28 29
21 20 20 20 21 21 21 20 20 21 22 23 23 23 24 24 24 24 25 25 25 26 26 26 25 25 25 26 26 26 26 26 26 26 26 27 27 27 28 28 28 29 29
Wind_Direction
97 100 96 93 86 93 113 115 107 105 103 108 139 191 221 233 226 235 235 236 245 253 256 262 271 267 262 257 255 255 255 252 252 254 252 251 250 254 257 257 262 264 265
95 97 86 85 82 83 84 92 92 85 79 85 120 212 238 250 252 261 260 267 264 261 258 265 270 264 266 264 261 259 256 253 255 258 255 255 254 258 260 260 263 265 267
84 87 81 82 82 85 84 70 65 61 31 1 312 298 289 278 266 268 271 278 281 268 265 270 272 270 272 270 265 263 259 256 262 263 261 258 258 261 261 261 264 266 266
73 78 80 81 77 80 75 57 40 21 358 337 330 324 312 305 304 298 296 294 288 278 269 270 270 273 276 278 275 270 270 265 270 271 267 261 258 259 261 263 263 265 266
62 62 64 64 63 51 39 30 11 350 334 332 340 337 326 305 304 304 300 296 293 291 283 276 276 278 280 282 280 277 275 272 272 272 269 266 260 260 261 263 265 265 266
56 53 55 49 41 25 14 3 349 329 309 327 333 331 329 318 308 299 298 296 295 292 289 287 287 287 288 286 286 284 282 277 273 275 274 270 269 267 264 264 265 265 268
47 40 36 37 32 23 16 360 350 341 323 320 320 324 323 318 314 307 301 296 293 291 291 292 289 289 291 292 289 287 287 287 284 280 277 277 276 272 270 269 269 270 269
35 28 18 19 27 22 13 356 346 344 335 321 315 316 319 317 314 309 306 304 302 304 301 298 296 293 296 299 297 296 296 294 288 286 282 280 279 276 272 271 273 272 271
22 16 17 9 3 2 357 353 344 339 338 327 317 314 314 315 316 313 304 300 298 300 302 302 300 299 299 300 301 301 301 298 294 288 283 280 280 279 277 275 273 273 272
9 3 1 356 349 346 346 344 345 339 332 328 323 317 316 318 316 313 304 296 293 295 297 299 298 298 301 303 302 301 301 300 298 293 287 284 281 280 280 279 278 276 276
359 352 349 346 343 343 343 342 342 339 336 333 329 325 321 321 319 315 311 305 299 295 294 295 297 296 296 299 301 301 299 298 299 295 290 286 282 282 282 283 282 281 279
358 347 338 334 333 334 333 332 331 334 334 330 330 328 323 321 319 318 316 313 309 306 302 302 301 301 300 298 300 300 299 299 299 298 293 287 283 281 282 282 282 281 279
358 354 348 344 337 329 322 320 323 327 329 329 329 327 323 320 318 317 316 314 312 310 307 306 304 303 303 302 300 299 299 299 297 296 295 291 286 282 282 283 281 282 280
354 354 350 350 348 336 326 326 330 329 326 324 323 322 320 319 317 315 315 313 312 311 308 305 304 304 303 304 303 301 298 298 297 296 296 294 293 290 287 285 284 283 282
348 348 341 342 347 346 339 334 334 332 328 326 322 318 318 319 317 316 315 312 311 313 313 310 307 305 303 303 304 303 302 302 299 298 296 295 294 294 294 291 288 286 283
341 341 343 345 342 341 338 336 334 331 328 326 325 322 318 318 318 318 318 316 312 311 311 313 312 310 308 307 307 308 308 307 303 299 300 300 297 296 295 292 291 290 288
335 333 337 337 335 335 335 333 331 328 326 324 323 323 321 320 319 320 318 316 315 314 313 313 314 313 313 311 310 310 311 310 308 305 304 304 300 297 295 295 295 294 292
333 329 328 329 330 330 329 326 324 323 322 322 320 320 321 320 319 319 319 317 315 315 314 314 314 313 312 311 313 314 313 312 309 309 306 305 302 298 297 297 295 294 293
321 320 319 320 324 325 324 324 325 324 320 319 319 318 317 317 317 316 317 317 316 316 315 314 314 314 312 312 313 313 312 310 308 306 305 305 304 302 301 299 297 296 295
308 310 311 311 314 318 320 321 322 323 319 316 314 313 313 314 314 313 315 315 316 314 313 313 313 312 311 311 312 311 311 309 308 306 304 303 301 301 300 300 299 297 295
303 305 308 307 308 310 313 315 315 314 314 314 314 313 314 314 314 313 313 313 314 313 312 312 311 310 309 309 310 310 310 310 310 308 305 302 301 301 300 299 298 297 297
301 303 304 304 305 304 305 308 310 311 312 312 312 312 314 314 312 313 313 313 312 312 311 311 311 311 311 309 309 311 311 310 310 309 306 304 303 302 301 301 300 300 299
297 300 300 301 299 300 301 303 305 308 310 310 311 311 311 312 312 313 312 312 311 310 310 309 309 309 310 310 309 309 309 309 309 309 307 306 305 304 303 302 301 300 300
295 294 295 297 297 299 301 301 302 304 305 306 307 308 310 310 309 310 311 311 310 310 310 308 307 308 309 309 309 308 307 307 308 309 308 306 306 305 304 303 302 302 302
292 291 291 293 295 296 298 296 297 301 302 302 302 303 304 305 306 306 307 307 309 310 309 308 308 308 308 308 309 307 306 307 307 308 308 307 307 306 305 304 303 303 304
286 286 286 290 291 293 295 292 293 297 299 300 301 302 302 302 303 304 305 305 306 308 308 308 308 308 309 309 308 307 306 306 306 307 307 307 307 306 306 305 305 305 304
Height
5893 5892 5892 5892 5892 5892 5892 5892 5892 5892 5892 5892 5891 5891 5891 5891 5891 5890 5890 5890 5890 5890 5890 5889 5889 5889 5888 5888 5888 5888 5889 5888 5888 5888 5888 5888 5888 5889 5890 5890 5890 5890 5890
5894 5894 5894 5894 5893 5893 5893 5893 5893 5892 5892 5892 5892 5891 5891 5891 5890 5890 5890 5889 5889 5889 5889 5888 5888 5888 5887 5887 5886 5886 5886 5886 5886 5886 5886 5886 5887 5887 5887 5887 5887 5887 5887
5895 5895 5895 5895 5894 5894 5894 5893 5893 5893 5893 5892 5892 5891 5891 5890 5890 5890 5889 5889 5888 5888 5887 5887 5886 5886 5886 5885 5884 5884 5884 5884 5884 5884 5884 5884 5884 5884 5884 5884 5885 5885 5885
5896 5896 5896 5895 5895 5895 5894 5894 5894 5893 5893 5892 5892 5891 5890 5890 5890 5889 5888 5888 5887 5887 5886 5886 5885 5885 5884 5883 5883 5882 5882 5882 5882 5882 5881 5881 5881 5881 5881 5881 5881 5881 5881
5897 5897 5896 5896 5896 5895 5895 5894 5894 5893 5893 5892 5891 5891 5890 5890 5889 5888 5888 5887 5886 5885 5885 5884 5883 5883 5882 5882 5881 5880 5880 5880 5879 5879 5879 5878 5878 5878 5878 5878 5878 5878 5878
5898 5897 5897 5896 5896 5896 5895 5894 5894 5893 5892 5892 5891 5891 5890 5889 5888 5887 5887 5886 5885 5884 5883 5883 5882 5881 5880 5880 5879 5878 5877 5877 5876 5875 5875 5875 5874 5874 5874 5874 5874 5873 5874
5899 5898 5897 5897 5896 5896 5895 5894 5894 5893 5892 5891 5891 5890 5889 5888 5887 5886 5885 5885 5884 5883 5882 5881 5880 5879 5879 5878 5877 5876 5875 5874 5873 5872 5871 5871 5871 5870 5870 5870 5869 5869 5869
5899 5898 5897 5897 5896 5895 5895 5894 5893 5892 5892 5891 5890 5889 5888 5888 5886 5885 5884 5883 5882 5881 5880 5879 5878 5877 5876 5875 5874 5873 5872 5871 5870 5869 5868 5867 5867 5866 5866 5866 5865 5865 5865
5899 5898 5898 5897 5896 5895 5894 5894 5893 5892 5891 5890 5889 5889 5888 5887 5885 5884 5883 5882 5881 5880 5879 5877 5876 5875 5874 5873 5872 5870 5869 5868 5867 5866 5865 5864 5863 5863 5862 5861 5861 5861 5860
5899 5898 5897 5896 5896 5895 5894 5893 5892 5891 5890 5889 5888 5887 5887 5885 5884 5883 5882 5880 5879 5878 5877 5876 5874 5873 5872 5871 5869 5868 5866 5865 5863 5862 5861 5860 5859 5858 5858 5857 5856 5856 5855
5899 5898 5897 5896 5895 5894 5893 5892 5891 5890 5889 5888 5887 5886 5885 5884 5882 5881 5880 5878 5877 5876 5875 5874 5872 5871 5869 5868 5867 5865 5863 5862 5860 5858 5857 5856 5855 5854 5853 5852 5851 5850 5850
5899 5898 5896 5895 5894 5893 5892 5891 5890 5889 5888 5887 5886 5885 5883 5882 5881 5879 5878 5876 5875 5874 5872 5871 5870 5868 5867 5865 5863 5862 5860 5858 5856 5854 5852 5851 5850 5849 5848 5847 5846 5845 5844
5898 5897 5896 5894 5893 5892 5891 5890 5889 5888 5887 5885 5884 5883 5882 5880 5879 5877 5876 5874 5873 5871 5870 5868 5867 5865 5864 5862 5860 5858 5856 5854 5852 5850 5848 5847 5845 5844 5843 5842 5841 5839 5838
5898 5896 5895 5893 5892 5891 5889 5888 5887 5886 5885 5884 5882 5881 5880 5879 5877 5875 5874 5872 5870 5869 5867 5865 5864 5862 5860 5858 5856 5854 5852 5850 5848 5846 5844 5842 5840 5838 5837 5836 5835 5834 5832
5897 5896 5894 5892 5891 5889 5888 5887 5885 5884 5883 5882 5880 5879 5878 5876 5875 5873 5871 5870 5868 5866 5864 5862 5860 5858 5856 5854 5852 5850 5848 5846 5844 5842 5839 5837 5835 5834 5832 5831 5829 5828 5827
5896 5894 5893 5891 5889 5888 5886 5885 5883 5882 5881 5879 5878 5877 5875 5874 5872 5871 5869 5867 5865 5863 5861 5859 5857 5855 5853 5851 5848 5846 5844 5842 5839 5837 5835 5832 5830 5829 5827 5825 5824 5822 5821
5895 5893 5892 5890 5888 5886 5885 5883 5881 5880 5878 5877 5876 5875 5873 5872 5870 5868 5866 5864 5862 5860 5858 5856 5854 5851 5849 5847 5845 5842 5840 5837 5835 5832 5830 5828 5826 5824 5822 5820 5818 5817 5815
5894 5892 5890 5888 5886 5884 5883 5881 5879 5878 5876 5875 5873 5872 5871 5869 5867 5866 5864 5862 5859 5857 5855 5853 5850 5848 5846 5843 5841 5838 5835 5833 5830 5828 5825 5823 5821 5819 5816 5814 5813 5811 5810
5892 5890 5888 5886 5884 5882 5881 5879 5877 5875 5874 5872 5871 5869 5868 5866 5865 5863 5861 5859 5856 5854 5852 5849 5847 5844 5842 5839 5837 5834 5831 5828 5826 5823 5821 5818 5816 5813 5811 5809 5807 5805 5803
5890 5888 5886 5884 5882 5880 5878 5876 5875 5873 5871 5870 5868 5867 5865 5863 5861 5860 5857 5855 5853 5851 5848 5846 5843 5841 5838 5835 5832 5830 5827 5824 5821 5818 5816 5813 5811 5808 5806 5803 5801 5799 5797
5887 5885 5883 5881 5880 5878 5876 5874 5872 5870 5868 5867 5865 5863 5862 5860 5858 5856 5854 5852 5849 5847 5844 5842 5839 5836 5834 5831 5828 5825 5822 5819 5816 5813 5811 5808 5805 5803 5800 5797 5795 5792 5790
5884 5882 5880 5878 5877 5875 5873 5871 5869 5867 5865 5863 5861 5860 5858 5856 5854 5852 5850 5848 5845 5843 5840 5837 5835 5832 5829 5826 5823 5820 5817 5815 5812 5809 5805 5803 5800 5796 5794 5791 5788 5786 5783
5880 5878 5877 5875 5873 5871 5869 5868 5866 5864 5862 5860 5858 5856 5854 5852 5850 5848 5846 5843 5841 5838 5836 5833 5830 5827 5824 5821 5818 5815 5812 5809 5806 5803 5800 5797 5794 5790 5787 5784 5781 5779 5776
5876 5874 5872 5871 5869 5867 5865 5863 5861 5860 5858 5856 5854 5852 5850 5847 5845 5843 5841 5838 5836 5833 5831 5828 5826 5823 5820 5816 5813 5810 5807 5804 5801 5797 5794 5791 5788 5784 5781 5778 5775 5772 5769
5871 5869 5867 5865 5864 5862 5860 5858 5856 5854 5853 5851 5849 5847 5845 5843 5840 5838 5836 5833 5831 5828 5825 5823 5820 5817 5814 5811 5808 5804 5801 5798 5795 5791 5788 5785 5781 5778 5775 5771 5768 5765 5762
5865 5863 5862 5860 5859 5857 5855 5853 5851 5849 5847 5845 5843 5841 5839 5837 5835 5833 5830 5828 5825 5823 5820 5817 5814 5811 5808 5805 5801 5798 5795 5792 5788 5785 5781 5778 5775 5771 5768 5765 5761 5758 5754